Location: Innsbruck
(47.2657°N, 11.3914°E)
Time: 02:42:35
(UTC+02:00)

Envisat - Pass Details

Date: 10 February 2023
Orbit: 763 x 765 km, 98.2° (Epoch: 28 March)

Event Time Altitude Azimuth Distance (km) Brightness Sun altitude
Rises 05:39:50 0° 3° (N) 3,244 6.3 -18.8°
Reaches altitude 10° 05:42:31 10° 351° (N) 2,313 5.4 -18.3°
Enters shadow 05:45:51 24° 311° (NW) 1,568 4.2 -17.8°
